GW7902 Weather Reports


time (UTC)temp
C
wind
direction
speed
KPH
gust
KPH
rain 1hr
cm
rain 24hr
cm
rain mn
cm
humidity
%
barometer
mb
20260831001606 15 290 16.1 20.9 0.00 0.00 0.00 83 1010.5
20260831000606 15 274 11.3 19.3 0.00 0.00 0.00 81 1010.6
20260830235606 16 271 12.9 19.3 0.00 0.00 0.00 80 1010.6
20260830234606 16 270 14.5 20.9 0.00 0.00 0.00 79 1010.5
20260830233606 16 260 14.5 22.5 0.00 0.00 0.00 79 1010.6
20260830232606 16 231 3.2 17.7 0.00 0.00 0.00 78 1010.5
20260830231606 17 279 16.1 17.7 0.00 0.00 0.00 77 1010.6
20260830230606 17 281 4.8 20.9 0.00 0.00 0.00 77 1010.7
20260830225616 17 250 12.9 12.9 0.00 0.00 0.00 78 1010.7
20260830225555 17 248 6.4 6.4 0.00 0.00 0.00 78 1010.8
20260830225545 17 268 9.7 9.7 0.00 0.00 0.00 78 1010.8
20260830225534 17 252 6.4 6.4 0.00 0.00 0.00 78 1010.8
20260830225524 17 274 9.7 9.7 0.00 0.00 0.00 78 1010.8
20260830225513 17 279 6.4 6.4 0.00 0.00 0.00 78 1010.8
20260830225503 17 269 6.4 6.4 0.00 0.00 0.00 78 1010.8
20260830225452 17 277 14.5 14.5 0.00 0.00 0.00 79 1010.7
20260830225442 17 284 14.5 14.5 0.00 0.00 0.00 79 1010.7
20260830225156 16 258 11.3 20.9 0.00 0.00 0.00 78 1010.8
20260830224156 17 282 6.4 19.3 0.00 0.00 0.00 79 1010.8
20260830223156 17 246 8.0 20.9 0.00 0.00 0.00 78 1011.0
20260830222156 16 281 16.1 20.9 0.00 0.00 0.00 79 1011.1
20260830221156 16 261 11.3 17.7 0.00 0.00 0.00 79 1011.2
20260830220156 16 252 11.3 19.3 0.00 0.00 0.00 78 1011.4
20260830215156 17 286 9.7 19.3 0.00 0.00 0.00 78 1011.4
20260830214156 16 260 4.8 17.7 0.00 0.00 0.00 78 1011.6
20260830213156 17 259 6.4 6.4 0.00 0.00 0.00 78 1011.9
20260830213025 17 284 12.9 12.9 0.00 0.00 0.00 78 1011.9
20260830213000 17 285 12.9 12.9 0.00 0.00 0.00 78 1011.8
20260830212739 16 285 14.5 14.5 0.00 0.00 0.00 78 1011.9
20260830212658 16 277 11.3 11.3 0.00 0.00 0.00 78 1011.9
20260830211642 17 250 14.5 19.3 0.00 0.00 0.00 78 1012.0
20260830210642 16 258 9.7 19.3 0.00 0.00 0.00 78 1012.0
20260830205642 16 273 6.4 19.3 0.00 0.00 0.00 78 1012.1
20260830204642 16 275 9.7 16.1 0.00 0.00 0.00 79 1012.1
20260830203642 16 246 6.4 19.3 0.00 0.00 0.00 79 1012.2
20260830202642 16 264 9.7 19.3 0.00 0.00 0.00 79 1012.2
20260830201642 16 269 4.8 16.1 0.00 0.00 0.00 78 1012.3
20260830200642 16 273 4.8 17.7 0.00 0.00 0.00 80 1012.3
20260830195642 16 262 6.4 16.1 0.00 0.00 0.00 82 1012.5
20260830194642 15 265 6.4 16.1 0.00 0.00 0.00 83 1012.5
20260830193642 15 284 6.4 17.7 0.00 0.00 0.00 84 1012.5
20260830192642 15 270 6.4 20.9 0.00 0.00 0.00 84 1012.5
20260830191642 15 256 3.2 22.5 0.00 0.00 0.00 85 1012.4
20260830190642 15 275 9.7 17.7 0.00 0.00 0.00 85 1012.4
20260830185642 14 277 16.1 22.5 0.00 0.00 0.00 86 1012.5
20260830184642 14 265 12.9 16.1 0.00 0.00 0.00 86 1012.6
20260830183642 13 266 4.8 17.7 0.00 0.00 0.00 88 1012.6
20260830182642 13 283 16.1 20.9 0.00 0.00 0.00 88 1012.6
20260830181642 14 261 12.9 14.5 0.00 0.00 0.00 87 1012.6
20260830180642 13 281 12.9 19.3 0.00 0.00 0.00 88 1012.5
20260830175642 13 279 3.2 22.5 0.00 0.00 0.00 90 1012.6
20260830174642 13 248 6.4 19.3 0.00 0.00 0.00 91 1012.5
20260830173642 13 223 3.2 20.9 0.00 0.00 0.00 93 1012.4
20260830172642 12 267 14.5 22.5 0.00 0.00 0.00 94 1012.4
20260830171642 12 253 8.0 20.9 0.00 0.00 0.00 95 1012.4
20260830170642 12 261 9.7 20.9 0.00 0.00 0.00 95 1012.2
20260830165642 12 298 16.1 24.1 0.00 0.00 0.00 95 1012.2
20260830164642 12 261 9.7 22.5 0.00 0.00 0.00 96 1012.2
20260830163642 11 263 6.4 24.1 0.00 0.00 0.00 96 1012.1
20260830162642 11 225 1.6 22.5 0.00 0.00 0.00 96 1012.2
20260830161642 11 222 3.2 20.9 0.00 0.00 0.00 96 1012.1
20260830160642 11 263 1.6 24.1 0.00 0.00 0.00 96 1012.2
20260830155642 11 259 3.2 27.4 0.00 0.00 0.00 96 1012.2
20260830154642 11 259 11.3 25.7 0.00 0.00 0.00 96 1012.2
20260830153642 11 290 20.9 27.4 0.00 0.00 0.00 96 1012.1
20260830152642 11 240 9.7 27.4 0.00 0.00 0.00 96 1012.2
20260830151642 11 266 9.7 22.5 0.00 0.00 0.00 96 1012.1
20260830150642 11 283 22.5 22.5 0.00 0.00 0.00 96 1012.1
20260830145642 11 225 4.8 24.1 0.00 0.00 0.00 96 1012.1
20260830144642 11 240 3.2 20.9 0.00 0.00 0.00 96 1012.1
20260830143642 11 233 8.0 20.9 0.00 0.00 0.00 96 1012.1
20260830142642 11 274 6.4 19.3 0.00 0.00 0.00 96 1011.9
20260830141642 11 244 4.8 20.9 0.00 0.00 0.00 96 1012.0
20260830140642 11 283 9.7 22.5 0.00 0.00 0.00 96 1011.8
20260830135642 11 238 3.2 20.9 0.00 0.00 0.00 96 1011.7
20260830134642 11 292 8.0 17.7 0.00 0.00 0.00 96 1011.5
20260830133642 11 257 6.4 22.5 0.00 0.00 0.00 96 1011.4
20260830132642 11 269 6.4 17.7 0.00 0.00 0.00 96 1011.3
20260830131642 11 227 4.8 22.5 0.00 0.00 0.00 96 1011.2
20260830130642 11 220 4.8 25.7 0.00 0.00 0.00 95 1011.2
20260830125642 11 270 3.2 20.9 0.00 0.00 0.00 95 1011.1
20260830124642 11 240 3.2 17.7 0.00 0.00 0.00 95 1011.2
20260830123642 11 259 4.8 12.9 0.00 0.00 0.00 95 1011.2
20260830122642 11 248 8.0 14.5 0.00 0.00 0.00 95 1011.1
20260830121642 11 250 4.8 19.3 0.00 0.00 0.00 95 1011.0
20260830120642 11 227 3.2 14.5 0.00 0.00 0.00 95 1011.0
20260830115642 11 286 11.3 22.5 0.00 0.00 0.00 95 1011.0
20260830114642 11 232 6.4 11.3 0.00 0.00 0.00 95 1011.1
20260830113642 11 223 3.2 14.5 0.00 0.00 0.00 95 1011.1
20260830112642 11 248 6.4 6.4 0.00 0.00 0.00 95 1011.3
20260830111642 11 250 3.2 9.7 0.00 0.00 0.00 95 1011.1
20260830110642 11 241 3.2 9.7 0.00 0.00 0.00 95 1011.1
20260830105642 11 232 4.8 8.0 0.00 0.00 0.00 95 1011.1
20260830104642 11 288 4.8 11.3 0.00 0.00 0.00 95 1011.1
20260830103641 11 241 1.6 11.3 0.00 0.00 0.00 95 1011.1
20260830102641 11 220 1.6 14.5 0.00 0.00 0.00 95 1011.1
20260830101642 11 237 6.4 6.4 0.00 0.00 0.00 95 1011.2
20260830100641 11 234 4.8 8.0 0.00 0.00 0.00 94 1011.3
20260830095641 11 235 3.2 19.3 0.00 0.00 0.00 94 1011.2
20260830094642 11 229 3.2 9.7 0.00 0.00 0.00 94 1011.2
20260830093642 11 227 3.2 8.0 0.00 0.00 0.00 94 1011.3
20260830092641 11 246 3.2 12.9 0.00 0.00 0.00 94 1011.2
20260830091641 11 269 4.8 14.5 0.00 0.00 0.00 94 1011.2
20260830090641 11 236 4.8 6.4 0.00 0.00 0.00 94 1011.3
20260830085641 11 236 3.2 8.0 0.00 0.00 0.00 94 1011.4
20260830084641 11 235 3.2 12.9 0.00 0.00 0.00 94 1011.4
20260830083641 11 256 4.8 11.3 0.00 0.00 0.00 93 1011.4
20260830082641 11 246 3.2 11.3 0.00 0.00 0.00 94 1011.5
20260830081642 11 249 3.2 9.7 0.00 0.00 0.00 93 1011.6
20260830080641 11 247 8.0 12.9 0.00 0.00 0.00 93 1011.6
20260830075641 11 224 3.2 22.5 0.00 0.00 0.00 93 1011.6
20260830074641 11 249 3.2 11.3 0.00 0.00 0.00 93 1011.7
20260830073641 11 222 6.4 14.5 0.00 0.00 0.00 93 1011.6
20260830072641 11 238 3.2 17.7 0.00 0.00 0.00 93 1011.7
20260830071641 11 225 1.6 24.1 0.00 0.00 0.00 93 1011.6
20260830070641 11 255 4.8 12.9 0.00 0.00 0.00 93 1011.7
20260830065640 11 219 3.2 8.0 0.00 0.00 0.00 93 1011.8
20260830064640 11 217 3.2 8.0 0.00 0.00 0.00 93 1011.9
20260830063640 11 213 3.2 12.9 0.00 0.00 0.00 93 1012.0
20260830062640 11 205 3.2 9.7 0.00 0.00 0.00 92 1012.1
20260830061640 11 230 3.2 8.0 0.00 0.00 0.00 92 1012.2
20260830060640 11 259 3.2 14.5 0.00 0.00 0.00 92 1012.3
20260830055640 11 228 3.2 9.7 0.00 0.00 0.00 92 1012.3
20260830054640 12 260 0.0 9.7 0.00 0.00 0.00 92 1012.4
20260830053640 12 231 1.6 9.7 0.00 0.00 0.00 92 1012.3
20260830052640 12 253 1.6 11.3 0.00 0.00 0.00 92 1012.3
20260830051640 12 227 6.4 16.1 0.00 0.00 0.00 92 1012.3
20260830050640 12 252 11.3 17.7 0.00 0.00 0.00 91 1012.4
20260830045640 12 262 3.2 14.5 0.00 0.00 0.00 91 1012.3
20260830044640 12 278 12.9 20.9 0.00 0.00 0.00 91 1012.3
20260830043640 12 254 6.4 24.1 0.00 0.00 0.00 90 1012.3
20260830042640 12 260 4.8 16.1 0.00 0.00 0.00 90 1012.2
20260830041640 12 273 9.7 22.5 0.00 0.00 0.00 89 1012.2
20260830040640 12 257 3.2 19.3 0.00 0.00 0.00 89 1012.0
20260830035640 12 219 9.7 12.9 0.00 0.00 0.00 88 1011.7
20260830034640 12 257 3.2 14.5 0.00 0.00 0.00 87 1011.6
20260830033640 12 214 8.0 14.5 0.00 0.00 0.00 87 1011.6
20260830032640 12 258 3.2 16.1 0.00 0.00 0.00 85 1011.4
20260830031640 12 230 4.8 11.3 0.00 0.00 0.00 84 1011.3
20260830030640 12 288 4.8 17.7 0.00 0.00 0.00 83 1011.3
20260830025640 12 236 3.2 19.3 0.00 0.00 0.00 82 1011.4
20260830024640 13 293 19.3 24.1 0.00 0.00 0.00 81 1011.4
20260830023640 13 252 17.7 22.5 0.00 0.00 0.00 79 1011.5
20260830022640 13 205 4.8 19.3 0.00 0.00 0.00 78 1011.4
20260830021640 14 253 6.4 29.0 0.00 0.00 0.00 76 1011.3
20260830020640 15 251 4.8 16.1 0.00 0.00 0.00 75 1011.4
20260830015640 15 252 6.4 24.1 0.00 0.00 0.00 73 1011.4
20260830014640 16 225 4.8 16.1 0.00 0.00 0.00 73 1011.5
20260830013640 16 283 16.1 19.3 0.00 0.00 0.00 72 1011.5
20260830012640 16 250 4.8 14.5 0.00 0.00 0.00 71 1011.6
20260830011640 17 284 4.8 12.9 0.00 0.00 0.00 71 1011.5
20260830010640 17 202 4.8 22.5 0.00 0.00 0.00 71 1011.6
20260830005640 17 252 4.8 19.3 0.00 0.00 0.00 71 1011.6
20260830004640 17 283 19.3 19.3 0.00 0.00 0.00 71 1011.5
20260830003640 17 232 3.2 12.9 0.00 0.00 0.00 70 1011.5
20260830002640 17 234 11.3 20.9 0.00 0.00 0.00 71 1011.5